Hourly Data Report for October 12, 2016

All times are specified in Local Standard Time (LST). Add 1 hour to adjust for Daylight Saving Time where and when it is observed.

KUGAARUK CLIMATE
NUNAVUT

68°32'15.060" N
89°47'47.020" W
15.80 m
2303094
71407
NBB

Download Data

Hourly Data (October 2016)
Hourly Data Report for October 12, 2016
Temp Definition
°C
Dew Point Temp Definition
°C
Rel Hum Definition
%
Wind Dir Definition
10's deg

Wind Spd Definition
km/h
Visibility Definition
km
Stn Press Definition
kPa
Hmdx Definition


Wind Chill Definition


Weather Definition


TIME
00:00 -13.5 -15.0 88 5 6   101.02   -18 LegendNANA
01:00 -12.7 -14.1 89 6 5   101.01   -16 LegendNANA
02:00 -12.3 -13.6 90 5 7   101.00   -17 LegendNANA
03:00 -12.2 -13.5 90 7 6   100.97   -16 LegendNANA
04:00 -11.9 -13.3 89 7 6   100.97   -16 LegendNANA
05:00 -12.1 -13.4 90 10 11   100.96   -18 LegendNANA
06:00 -10.2 -11.4 91 9 9   100.94   -15 LegendNANA
07:00 -9.6 -10.8 91 9 9   100.92   -14 LegendNANA
08:00 -9.7 -10.8 92 8 6   100.90   -13 LegendNANA
09:00 -9.9 -11.0 92 6 7   100.88   -14 LegendNANA
10:00 -9.3 -10.4 92 5 2   100.87   -10 LegendNANA
11:00 -8.9 -10.2 91 9 8   100.85   -13 LegendNANA
12:00 -8.6 -10.2 88 6 2   100.84   -10 LegendNANA
13:00
14:00
15:00
16:00 -7.3 -8.5 91 9 15   100.77   -13 LegendNANA
17:00 -7.8 -9.0 91 7 13   100.76   -14 LegendNANA
18:00 -6.1 -7.1 93 7 11   100.76   -11 LegendNANA
19:00 -4.9 -5.8 93 7 14   100.74   -10 LegendNANA
20:00 -5.5 -6.6 92 8 16   100.73   -11 LegendNANA
21:00 -5.4 -6.7 91 11 21   100.72   -12 LegendNANA
22:00 -6.6 -7.6 93 5 15   100.75   -13 LegendNANA
23:00 -8.9 -10.4 89 6 18   100.74   -16 LegendNANA

Notes on Data Quality.

Legend

  • E = Estimated
  • M = Missing
  • NA = Not Available
  • ‡ = Partner data that is not subject to review by the National Climate Archives
Date modified: